EFIV Weather Reports


Display with metric or nautical units.
time (UTC)temp
F
wind
direction
speed
MPH
gust
MPH
rain 1hr
in
rain 24hr
in
rain mn
in
humidity
%
barometer
mb
20260510222747 37 150 4.0 6.0 0.00 0.00 0.00 65 1010.2
20260510220748 37 88 2.0 3.0 0.00 0.00 0.00 68 1010.3
20260510214746 39 106 2.0 3.0 0.00 0.00 0.00 63 1010.2
20260510212747 40 17 1.0 2.0 0.00 0.00 0.00 56 1010.2
20260510210747 40 64 1.0 2.0 0.00 0.00 0.00 54 1010.2
20260510204746 44 67 1.0 2.0 0.00 0.00 0.00 43 1010.1
20260510202747 46 159 4.0 7.0 0.00 0.00 0.00 38 1010.0
20260510200746 48 176 5.0 8.0 0.00 0.00 0.00 34 1009.9
20260510194745 48 159 5.0 8.0 0.00 0.00 0.00 33 1009.8
20260510192746 49 163 6.0 9.0 0.00 0.00 0.00 32 1009.8
20260510190746 50 164 4.0 6.0 0.00 0.00 0.00 31 1009.7
20260510184746 51 188 6.0 9.0 0.00 0.00 0.00 31 1009.7
20260510182746 52 194 7.0 10.0 0.00 0.00 0.00 30 1009.7
20260510180746 52 202 9.0 16.0 0.00 0.00 0.00 29 1009.7
20260510174746 53 203 9.0 15.0 0.00 0.00 0.00 28 1009.7
20260510172746 53 206 15.0 25.0 0.00 0.00 0.00 26 1009.7
20260510170746 53 201 15.0 22.0 0.00 0.00 0.00 25 1009.6
20260510164746 54 201 16.0 23.0 0.00 0.00 0.00 25 1009.6
20260510162747 55 206 15.0 22.0 0.00 0.00 0.00 26 1009.5
20260510160747 54 215 16.0 27.0 0.00 0.00 0.00 26 1009.6
20260510154745 56 206 15.0 23.0 0.00 0.00 0.00 26 1009.4
20260510152745 55 207 11.0 17.0 0.00 0.00 0.00 28 1009.6
20260510151108 55 223 16.0 23.0 0.00 0.00 0.00 31 1009.8
20260510144746 54 227 17.0 26.0 0.00 0.00 0.00 32 1009.9
20260510134745 56 206 16.0 25.0 0.00 0.00 0.00 31 1009.9
20260510132745 55 204 12.0 21.0 0.00 0.00 0.00 32 1009.9
20260510130744 55 196 17.0 28.0 0.00 0.00 0.00 35 1010.0
20260510124745 54 228 19.0 26.0 0.00 0.00 0.00 36 1009.9
20260510122745 56 202 15.0 24.0 0.00 0.00 0.00 34 1009.9
20260510120745 54 215 15.0 23.0 0.00 0.00 0.00 34 1010.3
20260510114744 54 199 13.0 23.0 0.00 0.00 0.00 33 1010.3
20260510112745 55 204 13.0 20.0 0.00 0.00 0.00 32 1010.3
20260510110746 55 188 17.0 26.0 0.00 0.00 0.00 32 1010.6
20260510104745 54 216 16.0 25.0 0.00 0.00 0.00 34 1010.5
20260510102744 53 195 13.0 20.0 0.00 0.00 0.00 36 1010.7
20260510100746 53 209 15.0 21.0 0.00 0.00 0.00 38 1011.1
20260510094744 51 189 9.0 15.0 0.00 0.00 0.00 39 1011.6
20260510092743 50 188 10.0 15.0 0.00 0.00 0.00 40 1011.7
20260510090744 50 188 10.0 15.0 0.00 0.00 0.00 40 1011.7
20260510084744 50 199 9.0 14.0 0.00 0.00 0.00 43 1012.0
20260510082745 50 200 10.0 17.0 0.00 0.00 0.00 44 1012.2
20260510080743 49 228 11.0 15.0 0.00 0.00 0.00 49 1012.5
20260510074743 48 227 12.0 17.0 0.00 0.00 0.00 46 1012.8
20260510072744 48 217 12.0 18.0 0.00 0.00 0.00 45 1012.9
20260510070743 47 203 12.0 18.0 0.00 0.00 0.00 44 1012.9
20260510064745 47 210 13.0 19.0 0.00 0.00 0.00 45 1013.1
20260510062743 46 210 12.0 16.0 0.00 0.00 0.00 47 1013.2
20260510060743 46 219 9.0 14.0 0.00 0.00 0.00 49 1013.4
20260510054743 46 219 11.0 17.0 0.00 0.00 0.00 50 1013.6
20260510052744 46 188 5.0 7.0 0.00 0.00 0.00 51 1013.5
20260510050743 45 199 5.0 8.0 0.00 0.00 0.00 51 1013.6
20260510044743 45 212 7.0 11.0 0.00 0.00 0.00 51 1013.9
20260510042743 44 210 8.0 12.0 0.00 0.00 0.00 52 1014.0
20260510040744 44 206 8.0 14.0 0.00 0.00 0.00 55 1014.3
20260510034744 43 214 6.0 9.0 0.00 0.00 0.00 59 1014.4
20260510032744 42 236 4.0 6.0 0.00 0.00 0.00 64 1014.5
20260510030742 41 224 4.0 7.0 0.00 0.00 0.00 79 1014.6
20260510022743 38 198 3.0 5.0 0.00 0.00 0.00 93 1015.1
20260510020743 39 299 3.0 4.0 0.00 0.00 0.00 92 1015.1
20260510014743 39 234 2.0 4.0 0.00 0.00 0.00 93 1015.2
20260510012743 40 231 2.0 4.0 0.00 0.00 0.00 81 1015.4
20260510010743 38 236 4.0 5.0 0.00 0.00 0.00 90 1015.8
20260510000744 41 81 2.0 4.0 0.00 0.00 0.00 76 1015.9
20260509234742 40 68 1.0 2.0 0.00 0.00 0.00 85 1016.2
20260509232742 38 360 4.0 5.0 0.00 0.00 0.00 87 1016.5
20260509230744 42 196 4.0 5.0 0.00 0.00 0.00 79 1016.7